Weather History for Pinedale, WY

Change the Weather History Date:

Sunday, September 9, 2012

  Actual Average (KBPI) Record (KBPI)
Temperature  
Mean Temperature 54 °F 52 °F  
Max Temperature 77 °F 71 °F 82 °F (2012)
Min Temperature 32 °F 34 °F 11 °F (1976)
Degree Days  
Heating Degree Days 10 13  
Month to date heating degree days 102  
Since 1 July heating degree days 395  
Cooling Degree Days 0 0  
Month to date cooling degree days 0  
Year to date cooling degree days 35  
Growing Degree Days 4 (Base 50)    
Moisture  
Dew Point 26 °F    
Average Humidity 42    
Maximum Humidity 81    
Minimum Humidity 12    
Precipitation  
Precipitation 0.00 in 0.03 in 0.27 in (2005)
Month to date precipitation 0.24  
Year to date precipitation 4.90  
Sea Level Pressure  
Sea Level Pressure 30.28 in    
Wind  
Wind Speed 5 mph (WNW)    
Max Wind Speed 10 mph    
Max Gust Speed 16 mph    
Visibility 10 miles    
Events      
T = Trace of Precipitation, MM = Missing Value Source: NWS Daily Summary

Daily Weather History Graph

Daily Weather History Graph

Search for Another Location

Airport:

Trip Planner

Search our weather history database for the weather conditions in past years. The results will help you decide how hot, cold, wet, or windy it might be!

Date:

Astronomy

Sep. 09, 2012 Rise Set
Actual Time 6:53 AM MDT 7:38 PM MDT
Civil Twilight 6:24 AM MDT 8:07 PM MDT
Nautical Twilight 5:50 AM MDT 8:41 PM MDT
Astronomical Twilight 5:15 AM MDT 9:16 PM MDT
Moon 12:18 AM MDT (9/9) 3:32 PM MDT (9/9)
Length of Visible Light 13h 42m
Length of Day
12h 45m
Last Quarter, 39% of the Moon is Illuminated
Sep 9
Last Quarter
Sep 15
New
Sep 22
First Quarter
Sep 29
Full
Oct 8
Last Quarter

Hourly Weather History & Observations

Time (MDT) Temp. Windchill Dew Point Humidity Pressure Visibility Wind Dir Wind Speed Gust Speed Precip Events Conditions
12:15 AM 37.4 °F 32.8 °F 28.4 °F 70% 30.38 in 10.0 mi WNW 5.8 mph - N/A   Clear
12:35 AM 37.4 °F 32.8 °F 30.2 °F 75% 30.38 in 10.0 mi WNW 5.8 mph - N/A   Clear
12:55 AM 35.6 °F 30.7 °F 28.4 °F 75% 30.37 in 10.0 mi WNW 5.8 mph - N/A   Clear
1:15 AM 35.6 °F 30.7 °F 28.4 °F 75% 30.37 in 10.0 mi WNW 5.8 mph - N/A   Clear
1:35 AM 33.8 °F 27.7 °F 28.4 °F 81% 30.37 in 10.0 mi NW 6.9 mph - N/A   Clear
1:55 AM 33.8 °F 27.7 °F 28.4 °F 81% 30.37 in 10.0 mi WNW 6.9 mph - N/A   Clear
2:15 AM 33.8 °F 27.7 °F 28.4 °F 81% 30.37 in 10.0 mi WNW 6.9 mph - N/A   Clear
2:35 AM 33.8 °F 28.6 °F 28.4 °F 81% 30.37 in 10.0 mi WNW 5.8 mph - N/A   Clear
2:55 AM 32.0 °F 27.5 °F 26.6 °F 80% 30.36 in 10.0 mi WNW 4.6 mph - N/A   Clear
3:15 AM 33.8 °F 27.7 °F 28.4 °F 81% 30.36 in 10.0 mi West 6.9 mph - N/A   Clear
3:35 AM 32.0 °F 26.4 °F 26.6 °F 80% 30.37 in 10.0 mi WNW 5.8 mph - N/A   Clear
3:55 AM 32.0 °F 24.8 °F 26.6 °F 80% 30.36 in 10.0 mi WNW 8.1 mph - N/A   Clear
4:15 AM 32.0 °F 25.6 °F 26.6 °F 80% 30.36 in 10.0 mi NW 6.9 mph - N/A   Clear
4:35 AM 32.0 °F 26.4 °F 26.6 °F 80% 30.36 in 10.0 mi West 5.8 mph - N/A   Clear
4:55 AM 32.0 °F 24.8 °F 26.6 °F 80% 30.36 in 10.0 mi West 8.1 mph - N/A   Clear
5:15 AM 32.0 °F 24.8 °F 26.6 °F 80% 30.35 in 10.0 mi WNW 8.1 mph - N/A   Clear
5:35 AM 32.0 °F 26.4 °F 26.6 °F 80% 30.35 in 10.0 mi WNW 5.8 mph - N/A   Clear
5:55 AM 32.0 °F 24.8 °F 24.8 °F 75% 30.35 in 10.0 mi WNW 8.1 mph - N/A   Clear
6:15 AM 32.0 °F 25.6 °F 26.6 °F 80% 30.35 in 10.0 mi WNW 6.9 mph - N/A   Clear
6:35 AM 32.0 °F 26.4 °F 26.6 °F 80% 30.35 in 10.0 mi WNW 5.8 mph - N/A   Clear
6:55 AM 32.0 °F 26.4 °F 26.6 °F 80% 30.35 in 10.0 mi WNW 5.8 mph - N/A   Clear
7:15 AM 32.0 °F 26.4 °F 26.6 °F 80% 30.35 in 10.0 mi West 5.8 mph - N/A   Clear
7:35 AM 32.0 °F 27.5 °F 26.6 °F 80% 30.35 in 10.0 mi WNW 4.6 mph - N/A   Clear
7:55 AM 35.6 °F 29.9 °F 26.6 °F 70% 30.35 in 10.0 mi WNW 6.9 mph - N/A   Clear
8:15 AM 41.0 °F 37.1 °F 26.6 °F 57% 30.35 in 10.0 mi WNW 5.8 mph - N/A   Clear
8:35 AM 42.8 °F 40.1 °F 28.4 °F 57% 30.35 in 10.0 mi NW 4.6 mph - N/A   Clear
8:55 AM 46.4 °F 45.2 °F 30.2 °F 53% 30.35 in 10.0 mi WNW 3.5 mph - N/A   Clear
9:15 AM 50.0 °F - 30.2 °F 47% 30.35 in 10.0 mi Calm Calm - N/A   Clear
9:35 AM 53.6 °F - 28.4 °F 38% 30.35 in 10.0 mi Calm Calm - N/A   Clear
9:55 AM 57.2 °F - 26.6 °F 31% 30.35 in 10.0 mi Calm Calm - N/A   Clear
10:15 AM 59.0 °F - 26.6 °F 29% 30.35 in 10.0 mi ESE 4.6 mph - N/A   Clear
10:35 AM 62.6 °F - 26.6 °F 26% 30.34 in 10.0 mi Calm Calm - N/A   Clear
10:55 AM 62.6 °F - 24.8 °F 24% 30.34 in 10.0 mi ESE 4.6 mph - N/A   Clear
11:15 AM 64.4 °F - 24.8 °F 22% 30.33 in 10.0 mi East 5.8 mph - N/A   Clear
11:35 AM 66.2 °F - 24.8 °F 21% 30.32 in 10.0 mi ESE 4.6 mph - N/A   Clear
11:55 AM 68.0 °F - 23.0 °F 18% 30.32 in 10.0 mi Calm Calm - N/A   Clear
12:15 PM 69.8 °F - 23.0 °F 17% 30.30 in 10.0 mi East 4.6 mph - N/A   Clear
12:35 PM 69.8 °F - 23.0 °F 17% 30.29 in 10.0 mi NE 6.9 mph - N/A   Clear
12:55 PM 71.6 °F - 23.0 °F 16% 30.28 in 10.0 mi SSW 6.9 mph - N/A   Clear
1:15 PM 71.6 °F - 21.2 °F 15% 30.27 in 10.0 mi North 6.9 mph - N/A   Clear
1:35 PM 71.6 °F - 21.2 °F 15% 30.27 in 10.0 mi NE 5.8 mph - N/A   Clear
1:55 PM 71.6 °F - 21.2 °F 15% 30.26 in 10.0 mi Calm Calm - N/A   Clear
2:15 PM 73.4 °F - 21.2 °F 14% 30.25 in 10.0 mi NE 3.5 mph - N/A   Clear
2:35 PM 73.4 °F - 21.2 °F 14% 30.24 in 10.0 mi East 8.1 mph - N/A   Clear
2:55 PM 73.4 °F - 19.4 °F 13% 30.23 in 10.0 mi South 3.5 mph - N/A   Clear
3:15 PM 73.4 °F - 21.2 °F 14% 30.22 in 10.0 mi SSW 4.6 mph - N/A   Clear
3:35 PM 75.2 °F - 21.2 °F 13% 30.21 in 10.0 mi NNE 5.8 mph - N/A   Clear
3:55 PM 77.0 °F - 21.2 °F 12% 30.21 in 10.0 mi NE 4.6 mph - N/A   Clear
4:15 PM 75.2 °F - 21.2 °F 13% 30.20 in 10.0 mi Calm Calm - N/A   Clear
4:35 PM 77.0 °F - 21.2 °F 12% 30.19 in 10.0 mi SSW 3.5 mph - N/A   Clear
4:55 PM 77.0 °F - 21.2 °F 12% 30.19 in 10.0 mi NW 3.5 mph - N/A   Clear
5:15 PM 77.0 °F - 21.2 °F 12% 30.18 in 10.0 mi West 3.5 mph - N/A   Clear
5:35 PM 77.0 °F - 21.2 °F 12% 30.18 in 10.0 mi WNW 8.1 mph - N/A   Clear
5:55 PM 77.0 °F - 23.0 °F 13% 30.17 in 10.0 mi West 10.4 mph 16.1 mph N/A   Clear
6:15 PM 75.2 °F - 23.0 °F 14% 30.17 in 10.0 mi NW 9.2 mph - N/A   Clear
6:35 PM 71.6 °F - 24.8 °F 17% 30.18 in 10.0 mi West 6.9 mph - N/A   Clear
6:55 PM 68.0 °F - 26.6 °F 21% 30.17 in 10.0 mi West 4.6 mph - N/A   Clear
7:15 PM 69.8 °F - 28.4 °F 21% 30.18 in 10.0 mi West 10.4 mph - N/A   Clear
7:35 PM 69.8 °F - 30.2 °F 23% 30.18 in 10.0 mi West 8.1 mph - N/A   Scattered Clouds
7:55 PM 69.8 °F - 28.4 °F 21% 30.18 in 10.0 mi West 9.2 mph - N/A   Mostly Cloudy
8:15 PM 68.0 °F - 28.4 °F 23% 30.18 in 10.0 mi WSW 3.5 mph - N/A   Mostly Cloudy
8:35 PM 68.0 °F - 28.4 °F 23% 30.18 in 10.0 mi WSW 5.8 mph - N/A   Mostly Cloudy
8:55 PM 62.6 °F - 30.2 °F 30% 30.19 in 10.0 mi WNW 3.5 mph - N/A   Scattered Clouds
9:15 PM 64.4 °F - 28.4 °F 26% 30.19 in 10.0 mi WNW 4.6 mph - N/A   Clear
9:35 PM 62.6 °F - 30.2 °F 30% 30.19 in 10.0 mi WNW 5.8 mph - N/A   Clear
9:55 PM 64.4 °F - 32.0 °F 30% 30.20 in 10.0 mi West 8.1 mph - N/A   Clear
10:15 PM 62.6 °F - 32.0 °F 32% 30.20 in 10.0 mi WNW 6.9 mph - N/A   Clear
10:35 PM 60.8 °F - 30.2 °F 31% 30.20 in 10.0 mi Calm Calm - N/A   Scattered Clouds
10:55 PM 60.8 °F - 30.2 °F 31% 30.20 in 10.0 mi North 4.6 mph - N/A   Scattered Clouds
11:15 PM 59.0 °F - 30.2 °F 34% 30.19 in 10.0 mi NNW 3.5 mph - N/A   Overcast
11:35 PM 55.4 °F - 32.0 °F 41% 30.20 in 10.0 mi Calm Calm - N/A   Overcast
11:55 PM 55.4 °F - 30.2 °F 38% 30.20 in 10.0 mi Calm Calm - N/A   Overcast